• In Hungary
  • List of Countries
  • For 7 days
  • Water Temperature
  • Satellite Maps
  • Weather Map
  • News
  • Weather Widgets
  • user-avatar
    Login

    Hourly Weather Shazagay

    Today, 19 September, Wednesday

    Time Temperature Precipitation Wind Pressure Humidity
    00:00 +6°C° 0 mm 2 mps 679 mmHg 94%
    01:00 +7°C° 0 mm 1 mps 679 mmHg 95%
    02:00 +6°C° 0 mm 2 mps 679 mmHg 95%
    03:00 +6°C° 0 mm 2 mps 679 mmHg 94%
    04:00 +6°C° 0 mm 2 mps 679 mmHg 94%
    05:00 +6°C° 0 mm 2 mps 679 mmHg 91%
    06:00 +5°C° 0 mm 3 mps 679 mmHg 88%
    07:00 +6°C° 0 mm 4 mps 679 mmHg 84%
    08:00 +6°C° 0.1 mm 4 mps 679 mmHg 82%
    09:00 +6°C° 0.1 mm 4 mps 679 mmHg 80%
    10:00 +6°C° 0.1 mm 5 mps 679 mmHg 78%
    11:00 +6°C° 0.2 mm 5 mps 679 mmHg 79%
    12:00 +5°C° 0.2 mm 5 mps 678 mmHg 79%
    13:00 +3°C° 0 mm 6 mps 678 mmHg 82%
    14:00 +2°C° 0.6 mm 6 mps 678 mmHg 83%
    15:00 +2°C° 0.6 mm 6 mps 678 mmHg 84%
    16:00 0°C° 0.6 mm 7 mps 678 mmHg 84%
    17:00 +1°C° 2.2 mm 6 mps 678 mmHg 87%
    18:00 0°C° 2.2 mm 5 mps 678 mmHg 89%
    19:00 0°C° 2.2 mm 5 mps 678 mmHg 91%
    20:00 -1°C° 1.3 mm 5 mps 678 mmHg 91%
    21:00 -1°C° 1.3 mm 5 mps 679 mmHg 92%
    22:00 -1°C° 1.3 mm 4 mps 679 mmHg 93%
    23:00 -1°C° 1 mm 4 mps 679 mmHg 93%

    Tomorrow, 20 September, Thursday

    Time Temperature Precipitation Wind Pressure Humidity
    00:00 -1°C° 1 mm 4 mps 679 mmHg 93%
    01:00 -1°C° 1 mm 4 mps 678 mmHg 93%
    02:00 -1°C° 1.4 mm 4 mps 678 mmHg 93%
    03:00 -2°C° 1.4 mm 4 mps 678 mmHg 93%
    04:00 -2°C° 1.4 mm 5 mps 678 mmHg 94%
    05:00 -2°C° 1.1 mm 5 mps 678 mmHg 94%
    06:00 -2°C° 1.1 mm 5 mps 678 mmHg 94%
    07:00 -3°C° 1.1 mm 6 mps 678 mmHg 94%
    08:00 -3°C° 1.4 mm 6 mps 678 mmHg 94%
    09:00 -3°C° 1.4 mm 6 mps 678 mmHg 95%
    10:00 -3°C° 1.4 mm 6 mps 678 mmHg 95%
    11:00 -3°C° 1.8 mm 7 mps 678 mmHg 95%
    12:00 -3°C° 1.8 mm 7 mps 678 mmHg 96%
    13:00 -3°C° 1.8 mm 7 mps 679 mmHg 96%
    14:00 -3°C° 1.9 mm 7 mps 679 mmHg 96%
    15:00 -2°C° 1.9 mm 6 mps 679 mmHg 96%
    16:00 -2°C° 1.9 mm 6 mps 679 mmHg 96%
    17:00 -2°C° 1 mm 6 mps 679 mmHg 96%
    18:00 -1°C° 1 mm 5 mps 680 mmHg 96%
    19:00 -1°C° 1 mm 5 mps 680 mmHg 96%
    20:00 -1°C° 0.1 mm 5 mps 680 mmHg 96%
    21:00 -1°C° 0.1 mm 5 mps 681 mmHg 95%
    22:00 -1°C° 0.1 mm 5 mps 681 mmHg 95%
    23:00 -1°C° 0.1 mm 5 mps 681 mmHg 95%

    Day after tomorrow, 21 September, Friday

    Time Temperature Precipitation Wind Pressure Humidity
    00:00 -1°C° 0.1 mm 5 mps 682 mmHg 95%
    01:00 -1°C° 0.1 mm 5 mps 682 mmHg 95%
    02:00 -1°C° 0 mm 4 mps 682 mmHg 94%
    03:00 -2°C° 0 mm 4 mps 682 mmHg 94%
    04:00 -2°C° 0 mm 4 mps 683 mmHg 93%
    05:00 -1°C° 0 mm 3 mps 683 mmHg 94%
    06:00 -1°C° 0 mm 3 mps 683 mmHg 95%
    07:00 -1°C° 0 mm 3 mps 684 mmHg 96%
    08:00 0°C° 0.1 mm 3 mps 684 mmHg 96%
    09:00 0°C° 0.1 mm 3 mps 685 mmHg 97%
    10:00 +1°C° 0.1 mm 3 mps 685 mmHg 97%
    11:00 +1°C° 0 mm 3 mps 685 mmHg 96%
    12:00 +2°C° 0 mm 3 mps 685 mmHg 95%
    13:00 +2°C° 0 mm 3 mps 685 mmHg 94%
    14:00 +2°C° 0 mm 3 mps 685 mmHg 94%
    15:00 +3°C° 0 mm 2 mps 685 mmHg 94%
    16:00 +3°C° 0 mm 2 mps 685 mmHg 94%
    17:00 +3°C° 0 mm 2 mps 686 mmHg 94%
    18:00 +3°C° 0 mm 1 mps 686 mmHg 94%
    19:00 +3°C° 0 mm 1 mps 686 mmHg 94%
    20:00 +2°C° 0 mm 1 mps 686 mmHg 94%
    21:00 +2°C° 0 mm 1 mps 687 mmHg 94%
    22:00 +2°C° 0 mm 1 mps 687 mmHg 94%
    23:00 +1°C° 0 mm 1 mps 687 mmHg 93%

    22 September, Saturday

    Time Temperature Precipitation Wind Pressure Humidity
    00:00 +1°C° 0 mm 1 mps 687 mmHg 93%
    01:00 0°C° 0 mm 1 mps 687 mmHg 93%
    02:00 0°C° 0 mm 1 mps 687 mmHg 93%
    03:00 0°C° 0 mm 1 mps 687 mmHg 92%
    04:00 -1°C° 0 mm 1 mps 687 mmHg 92%
    05:00 -1°C° 0 mm 0 mps 687 mmHg 92%
    06:00 0°C° 0 mm 0 mps 688 mmHg 92%
    07:00 0°C° 0 mm 0 mps 689 mmHg 91%
    08:00 +2°C° 0 mm 0 mps 689 mmHg 91%
    09:00 +3°C° 0 mm 0 mps 689 mmHg 91%
    10:00 +5°C° 0 mm 1 mps 689 mmHg 91%
    11:00 +4°C° 0 mm 0 mps 689 mmHg 89%
    12:00 +5°C° 0 mm 0 mps 689 mmHg 88%
    13:00 +6°C° 0 mm 0 mps 689 mmHg 86%
    14:00 +7°C° 0 mm 1 mps 689 mmHg 86%
    15:00 +7°C° 0 mm 1 mps 689 mmHg 87%
    16:00 +7°C° 0 mm 1 mps 689 mmHg 87%
    17:00 +5°C° 0 mm 1 mps 689 mmHg 90%
    18:00 +3°C° 0 mm 2 mps 689 mmHg 94%
    19:00 +2°C° 0 mm 2 mps 689 mmHg 97%
    20:00 +1°C° 0 mm 2 mps 689 mmHg 97%
    21:00 +1°C° 0 mm 2 mps 689 mmHg 97%
    22:00 -1°C° 0 mm 2 mps 689 mmHg 97%
    23:00 +1°C° 0 mm 1 mps 689 mmHg 96%

    23 September, Sunday

    Time Temperature Precipitation Wind Pressure Humidity
    00:00 0°C° 0 mm 1 mps 689 mmHg 95%
    01:00 0°C° 0 mm 1 mps 689 mmHg 94%
    02:00 0°C° 0 mm 1 mps 688 mmHg 93%
    03:00 -1°C° 0 mm 1 mps 688 mmHg 92%
    04:00 -1°C° 0 mm 1 mps 688 mmHg 92%
    05:00 0°C° 0 mm 1 mps 688 mmHg 90%
    06:00 +1°C° 0 mm 1 mps 688 mmHg 89%
    07:00 +1°C° 0 mm 1 mps 688 mmHg 88%
    08:00 +3°C° 0 mm 1 mps 688 mmHg 86%
    09:00 +4°C° 0 mm 2 mps 688 mmHg 84%
    10:00 +5°C° 0 mm 2 mps 688 mmHg 83%
    11:00 +6°C° 0 mm 2 mps 688 mmHg 82%
    12:00 +7°C° 0 mm 2 mps 687 mmHg 81%
    13:00 +8°C° 0 mm 2 mps 687 mmHg 80%
    14:00 +7°C° 0 mm 2 mps 686 mmHg 82%
    15:00 +7°C° 0 mm 2 mps 686 mmHg 84%
    16:00 +7°C° 0 mm 2 mps 686 mmHg 85%
    17:00 +5°C° 0 mm 2 mps 686 mmHg 89%
    18:00 +4°C° 0 mm 2 mps 686 mmHg 93%
    19:00 +2°C° 0 mm 2 mps 685 mmHg 97%
    20:00 +1°C° 0 mm 2 mps 685 mmHg 97%
    21:00 +1°C° 0 mm 2 mps 685 mmHg 96%
    22:00 -1°C° 0 mm 2 mps 685 mmHg 96%
    23:00 -1°C° 0 mm 2 mps 685 mmHg 95%

    24 September, Monday

    Time Temperature Precipitation Wind Pressure Humidity
    00:00 +1°C° 0 mm 1 mps 685 mmHg 95%
    01:00 0°C° 0 mm 1 mps 684 mmHg 94%
    02:00 0°C° 0 mm 1 mps 684 mmHg 92%
    03:00 0°C° 0 mm 1 mps 684 mmHg 90%
    04:00 0°C° 0 mm 1 mps 684 mmHg 88%
    05:00 +1°C° 0 mm 1 mps 684 mmHg 86%
    06:00 +2°C° 0 mm 1 mps 684 mmHg 84%
    07:00 +2°C° 0 mm 1 mps 684 mmHg 82%
    08:00 +4°C° 0 mm 1 mps 684 mmHg 79%
    09:00 +6°C° 0 mm 1 mps 684 mmHg 75%
    10:00 +8°C° 0 mm 1 mps 684 mmHg 72%
    11:00 +9°C° 0 mm 1 mps 684 mmHg 71%
    12:00 +10°C° 0 mm 1 mps 684 mmHg 69%
    13:00 +11°C° 0 mm 1 mps 683 mmHg 68%
    14:00 +11°C° 0 mm 1 mps 683 mmHg 70%
    15:00 +11°C° 0 mm 1 mps 683 mmHg 73%
    16:00 +10°C° 0 mm 1 mps 683 mmHg 76%
    17:00 +8°C° 0 mm 1 mps 683 mmHg 82%
    18:00 +6°C° 0 mm 1 mps 683 mmHg 88%
    19:00 +4°C° 0 mm 1 mps 683 mmHg 94%
    20:00 +4°C° 0 mm 1 mps 683 mmHg 94%
    21:00 +3°C° 0 mm 1 mps 683 mmHg 94%
    22:00 +3°C° 0 mm 1 mps 682 mmHg 94%
    23:00 +2°C° 0 mm 1 mps 682 mmHg 93%
    Show more